TimeEDT,TemperatureF,Dew PointF,Humidity,Sea Level PressureIn,VisibilityMPH,Wind Direction,Wind SpeedMPH,Gust SpeedMPH,PrecipitationIn,Events,Conditions,WindDirDegrees,DateUTC
12:53 AM,64.0,55.9,75,30.20,10.0,East,4.6,-,N/A,,Clear,100,2013-08-17 04:53:00
1:53 AM,63.0,55.0,75,30.21,10.0,Calm,Calm,-,N/A,,Clear,0,2013-08-17 05:53:00
2:53 AM,62.1,54.0,75,30.21,10.0,ESE,3.5,-,N/A,,Clear,120,2013-08-17 06:53:00
3:53 AM,62.1,54.0,75,30.21,10.0,East,3.5,-,N/A,,Clear,100,2013-08-17 07:53:00
4:53 AM,62.1,55.0,78,30.22,10.0,East,3.5,-,N/A,,Clear,100,2013-08-17 08:53:00
5:53 AM,62.1,55.9,80,30.22,10.0,East,3.5,-,N/A,,Clear,80,2013-08-17 09:53:00
6:53 AM,62.1,57.0,84,30.23,10.0,Variable,4.6,-,N/A,,Clear,0,2013-08-17 10:53:00
7:53 AM,63.0,55.9,78,30.24,10.0,East,4.6,-,N/A,,Clear,100,2013-08-17 11:53:00
8:53 AM,66.0,55.9,70,30.25,10.0,East,9.2,-,N/A,,Clear,100,2013-08-17 12:53:00
9:53 AM,68.0,55.0,63,30.24,10.0,Calm,Calm,-,N/A,,Clear,0,2013-08-17 13:53:00
10:53 AM,73.0,59.0,61,30.24,10.0,NNE,4.6,-,N/A,,Clear,20,2013-08-17 14:53:00
11:53 AM,73.9,59.0,59,30.23,10.0,North,6.9,-,N/A,,Clear,10,2013-08-17 15:53:00
12:53 PM,75.9,62.1,62,30.23,10.0,NNE,8.1,-,N/A,,Partly Cloudy,20,2013-08-17 16:53:00
1:53 PM,73.9,63.0,68,30.22,10.0,NNE,9.2,-,N/A,,Partly Cloudy,30,2013-08-17 17:53:00
2:53 PM,73.9,64.9,73,30.22,10.0,NE,10.4,-,N/A,,Partly Cloudy,40,2013-08-17 18:53:00
3:53 PM,75.0,66.0,73,30.20,10.0,NNE,11.5,-,N/A,,Partly Cloudy,20,2013-08-17 19:53:00
4:53 PM,75.9,66.9,74,30.19,10.0,NNE,11.5,21.9,N/A,,Scattered Clouds,20,2013-08-17 20:53:00
5:53 PM,77.0,55.9,48,30.19,10.0,Variable,4.6,-,N/A,,Scattered Clouds,0,2013-08-17 21:53:00
6:53 PM,78.1,55.9,46,30.18,10.0,East,8.1,17.3,N/A,,Scattered Clouds,90,2013-08-17 22:53:00
7:53 PM,75.9,54.0,46,30.19,10.0,East,8.1,-,N/A,,Mostly Cloudy,90,2013-08-17 23:53:00
8:53 PM,73.0,55.0,53,30.18,10.0,East,5.8,-,N/A,,Scattered Clouds,100,2013-08-18 00:53:00
9:53 PM,72.0,55.9,57,30.19,10.0,East,6.9,-,N/A,,Clear,90,2013-08-18 01:53:00
10:53 PM,70.0,57.0,63,30.20,10.0,East,8.1,-,N/A,,Clear,90,2013-08-18 02:53:00
11:53 PM,69.1,57.0,65,30.19,10.0,East,6.9,-,N/A,,Clear,100,2013-08-18 03:53:00